Flag for Germany Weather past 2 weeks in Hanau, Hesse, Germany

Now
52 °F

Clear.


Feels Like: 51 °F
Forecast: 59 / 74 °F
Wind: 5 mph from Northeast

Location: Frankfurt-M-Flughafen Airport

Current Time: Aug 28, 2014 at 6:03:22 AM

Latest Report: Aug 28, 2014 at 5:20 AM


Visibility: 10 mi

Pressure: 30.04 "Hg

Humidity: 100%

Dew point: 52 °F

Location of HanauLocation

Historic Weather in Hanau — Graph

°F

Hanau temperature yesterday

Maximum temperature yesterday: 70 °F (at 3:20 PM)
Minimum temperature yesterday: 54 °F (at 11:50 PM)
Average temperature yesterday: 60 °F

Past Weeks' High & Low Weather Summary

 TemperatureHumidityPressure
High72 °F (Aug 19, 3:50 PM)100% (Aug 14, 4:20 AM)30.12 "Hg (Aug 14, 4:20 AM)
Low46 °F (Aug 20, 5:20 AM)33% (Aug 22, 4:50 PM)29.65 "Hg (Aug 13, 2:20 PM)
Average59 °F78%29.94 "Hg
* Reported Aug 13 4:20 AM — Aug 28 4:50 AM, Hanau, Weather by CustomWeather, © 2014

Note: Actual official high and low records may vary slightly from our data, if they occured in-between our weather recording intervals... More about our weather records

Advertising

Hanau weather history for previous 24 hours

 ConditionsComfort  
Time TempWeatherWind HumidityBarometerVisibility
4:50 AM
Aug 28
52 °FClear.6 mph100%30.04 "Hg10 mi
4:20 AM52 °FClear.5 mph100%30.04 "Hg10 mi
3:50 AM52 °FClear.5 mph100%30.04 "Hg10 mi
3:20 AM54 °FClear.5 mph100%30.04 "Hg10 mi
2:50 AM54 °FClear.5 mph100%30.07 "Hg10 mi
2:20 AM52 °FClear.3 mph100%30.07 "Hg10 mi
1:50 AM52 °FClear.5 mph94%30.07 "Hg10 mi
1:20 AM52 °FClear.3 mph100%30.07 "Hg10 mi
12:50 AM54 °FClear.3 mph94%30.07 "Hg10 mi
12:20 AM54 °FClear.3 mph94%30.07 "Hg10 mi
11:50 PM
Aug 27
54 °FClear.3 mph94%30.07 "Hg10 mi
11:20 PM55 °FClear.2 mph88%30.07 "Hg10 mi
10:50 PM55 °FClear.2 mph88%30.07 "Hg10 mi
10:20 PM57 °FClear.3 mph88%30.04 "Hg10 mi
9:50 PM57 °FClear.3 mph82%30.07 "Hg10 mi
9:20 PM61 °FSunny.3 mph72%30.04 "Hg10 mi
8:50 PM61 °FSunny.3 mph72%30.04 "Hg10 mi
7:50 PM66 °FScattered clouds.2 mph60%30.04 "HgN/A
7:20 PM68 °FScattered clouds.2 mph53%30.04 "HgN/A
6:20 PM66 °FPassing clouds.2 mph56%30.04 "HgN/A
4:20 PM70 °FScattered clouds.2 mph53%30.01 "HgN/A
3:50 PM70 °FScattered clouds.No wind50%30.04 "HgN/A
3:20 PM70 °FScattered clouds.No wind50%30.04 "HgN/A
2:50 PM68 °FScattered clouds.1 mph56%30.04 "HgN/A
2:20 PM64 °FScattered clouds.3 mph64%30.04 "HgN/A
1:50 PM66 °FScattered clouds.3 mph60%30.04 "HgN/A
1:20 PM66 °FScattered clouds.5 mph64%30.04 "HgN/A
12:20 PM63 °FPassing clouds.6 mph77%30.04 "HgN/A
11:50 AM63 °FScattered clouds.7 mph77%30.01 "HgN/A
11:20 AM61 °FScattered clouds.7 mph77%30.01 "HgN/A
10:50 AM59 °FPartly sunny.6 mph82%30.01 "HgN/A
10:20 AM61 °FScattered clouds.5 mph88%30.01 "HgN/A
9:50 AM59 °FBroken clouds.7 mph88%29.98 "HgN/A
9:20 AM57 °FPartly sunny.9 mph94%29.98 "HgN/A
8:50 AM57 °FScattered clouds.9 mph94%29.98 "HgN/A
8:20 AM57 °FPartly sunny.7 mph94%29.95 "HgN/A
7:50 AM55 °FPartly sunny.6 mph100%29.95 "HgN/A
7:20 AM55 °FPassing clouds.5 mph100%29.92 "HgN/A
6:50 AM55 °FPassing clouds.6 mph100%29.92 "HgN/A
6:20 AM55 °FPassing clouds.7 mph100%29.89 "HgN/A
Weather by CustomWeather, © 2014

See weather overviewHow to use our weather pages